Location: Pensacola
(30.4142°N, 87.2155°W)
Time: 12:11:01
(UTC-05:00)

BUGSAT 1 - Visible Passes

Search period start: 20 April 2024 00:00
Search period end: 30 April 2024 00:00
Orbit: 533 x 581 km, 98.1° (Epoch: 19 April)

Date Brightness Start Highest point End Pass type
(mag) Time Alt. Az. Time Alt. Az. Time Alt. Az.
20 Apr ? 20:02:16 10° SE 20:05:50 35° ENE 20:09:28 10° N visible
20 Apr ? 21:39:33 10° WSW 21:40:44 11° W 21:41:57 10° WNW visible
21 Apr ? 20:00:14 10° SE 20:03:45 33° ENE 20:07:19 10° N visible
21 Apr ? 21:37:02 10° WSW 21:38:37 12° W 21:40:13 10° WNW visible
22 Apr ? 19:58:11 10° SE 20:01:38 31° ENE 20:05:09 10° N visible
22 Apr ? 21:34:36 10° WSW 21:36:29 13° W 21:38:22 10° WNW visible
23 Apr ? 19:56:06 10° SE 19:59:30 29° ENE 20:02:56 10° NNE visible
23 Apr ? 21:32:10 10° SW 21:34:18 14° W 21:36:27 10° WNW visible
24 Apr ? 19:54:00 10° SE 19:57:18 27° ENE 20:00:41 10° NNE visible
24 Apr ? 21:29:45 10° SW 21:32:05 15° W 21:34:27 10° WNW visible
25 Apr ? 19:51:51 10° SE 19:55:06 25° ENE 19:58:23 10° NNE visible
25 Apr ? 21:27:18 10° SW 21:29:51 16° W 21:32:25 10° NW visible
26 Apr ? 19:49:43 10° SE 19:52:52 23° ENE 19:56:03 10° NNE visible
26 Apr ? 21:24:52 10° SW 21:27:34 18° W 21:30:19 10° NW visible
27 Apr ? 19:47:32 10° ESE 19:50:35 22° ENE 19:53:41 10° NNE visible
27 Apr ? 21:22:24 10° SW 21:25:15 19° W 21:28:10 10° NW visible
28 Apr ? 21:19:55 10° SSW 21:22:55 21° W 21:25:58 10° NW visible
29 Apr ? 21:17:25 10° SSW 21:20:33 22° W 21:23:44 10° NW visible
